Time,TemperatureF,DewpointF,PressureIn,WindDirection,WindDirectionDegrees,WindSpeedMPH,WindSpeedGustMPH,Humidity,HourlyPrecipIn,Conditions,Clouds,dailyrainin,SoftwareType,DateUTC
2013-01-19 00:07:00,28.8,19.0,30.41,SSW,194,7.0,11.0,67,0.00,,,0.00,weatherlink.com 1.10,2013-01-19 05:07:00,
2013-01-19 00:22:00,29.2,20.0,30.41,SSW,197,10.0,11.0,68,0.00,,,0.00,weatherlink.com 1.10,2013-01-19 05:22:00,
2013-01-19 00:37:00,29.5,20.0,30.41,South,184,6.0,12.0,68,0.00,,,0.00,weatherlink.com 1.10,2013-01-19 05:37:00,
2013-01-19 00:52:00,29.5,20.0,30.40,South,178,6.0,10.0,67,0.00,,,0.00,weatherlink.com 1.10,2013-01-19 05:52:00,
2013-01-19 01:07:00,29.4,20.0,30.40,SSW,199,2.0,10.0,68,0.00,,,0.00,weatherlink.com 1.10,2013-01-19 06:07:00,
2013-01-19 01:22:00,29.6,20.0,30.40,SSW,204,7.0,9.0,67,0.00,,,0.00,weatherlink.com 1.10,2013-01-19 06:22:00,
2013-01-19 01:38:00,29.6,20.0,30.39,SW,215,5.0,11.0,67,0.00,,,0.00,weatherlink.com 1.10,2013-01-19 06:38:00,
2013-01-19 01:53:00,29.5,20.0,30.39,SSW,197,7.0,9.0,68,0.00,,,0.00,weatherlink.com 1.10,2013-01-19 06:53:00,
2013-01-19 02:08:00,29.6,20.0,30.38,South,191,6.0,8.0,68,0.00,,,0.00,weatherlink.com 1.10,2013-01-19 07:08:00,
2013-01-19 02:23:00,29.9,20.0,30.38,SSW,211,2.0,11.0,67,0.00,,,0.00,weatherlink.com 1.10,2013-01-19 07:23:00,
2013-01-19 02:38:00,29.9,20.0,30.38,SSW,210,6.0,9.0,68,0.00,,,0.00,weatherlink.com 1.10,2013-01-19 07:38:00,
2013-01-19 02:53:00,30.2,21.0,30.38,SW,215,3.0,10.0,68,0.00,,,0.00,weatherlink.com 1.10,2013-01-19 07:53:00,
2013-01-19 03:08:00,30.2,21.0,30.36,SSW,204,5.0,11.0,69,0.00,,,0.00,weatherlink.com 1.10,2013-01-19 08:08:00,
2013-01-19 03:23:00,30.7,22.0,30.36,SSW,213,7.0,11.0,69,0.00,,,0.00,weatherlink.com 1.10,2013-01-19 08:23:00,
2013-01-19 03:38:00,30.9,22.0,30.35,SW,214,8.0,12.0,69,0.00,,,0.00,weatherlink.com 1.10,2013-01-19 08:38:00,
2013-01-19 03:53:00,31.0,22.0,30.35,SSW,205,3.0,13.0,69,0.00,,,0.00,weatherlink.com 1.10,2013-01-19 08:53:00,
2013-01-19 04:08:00,31.1,22.0,30.35,SSW,207,14.0,17.0,70,0.00,,,0.00,weatherlink.com 1.10,2013-01-19 09:08:00,
2013-01-19 04:23:00,31.2,22.0,30.34,SSW,207,6.0,17.0,70,0.00,,,0.00,weatherlink.com 1.10,2013-01-19 09:23:00,
2013-01-19 04:38:00,31.1,23.0,30.34,South,186,5.0,13.0,71,0.00,,,0.00,weatherlink.com 1.10,2013-01-19 09:38:00,
2013-01-19 04:53:00,31.5,23.0,30.33,SW,214,6.0,14.0,71,0.00,,,0.00,weatherlink.com 1.10,2013-01-19 09:53:00,
2013-01-19 05:08:00,31.5,23.0,30.33,SW,214,8.0,12.0,72,0.00,,,0.00,weatherlink.com 1.10,2013-01-19 10:08:00,
2013-01-19 05:23:00,31.6,23.0,30.33,SSE,157,6.0,13.0,71,0.00,,,0.00,weatherlink.com 1.10,2013-01-19 10:23:00,
2013-01-19 05:38:00,31.6,24.0,30.33,SW,222,7.0,14.0,72,0.00,,,0.00,weatherlink.com 1.10,2013-01-19 10:38:00,
2013-01-19 05:53:00,31.5,23.0,30.33,SSW,211,6.0,16.0,72,0.00,,,0.00,weatherlink.com 1.10,2013-01-19 10:53:00,
2013-01-19 06:08:00,31.4,24.0,30.32,SW,221,9.0,12.0,74,0.00,,,0.00,weatherlink.com 1.10,2013-01-19 11:08:00,
2013-01-19 07:53:00,31.5,24.0,30.31,SW,216,6.0,16.0,75,0.00,,,0.00,weatherlink.com 1.10,2013-01-19 12:53:00,
2013-01-19 08:08:00,32.1,25.0,30.32,SSW,197,11.0,14.0,74,0.00,,,0.00,weatherlink.com 1.10,2013-01-19 13:08:00,
2013-01-19 08:23:00,32.6,25.0,30.32,SSW,200,11.0,14.0,73,0.00,,,0.00,weatherlink.com 1.10,2013-01-19 13:23:00,
2013-01-19 08:38:00,33.0,25.0,30.32,SSW,207,12.0,16.0,72,0.00,,,0.00,weatherlink.com 1.10,2013-01-19 13:38:00,
2013-01-19 08:53:00,33.6,25.0,30.32,South,183,10.0,19.0,71,0.00,,,0.00,weatherlink.com 1.10,2013-01-19 13:53:00,
2013-01-19 09:08:00,34.1,26.0,30.32,SSW,210,8.0,17.0,71,0.00,,,0.00,weatherlink.com 1.10,2013-01-19 14:08:00,
2013-01-19 09:23:00,34.8,26.0,30.32,SW,215,12.0,16.0,70,0.00,,,0.00,weatherlink.com 1.10,2013-01-19 14:23:00,
2013-01-19 09:38:00,35.5,26.0,30.32,SW,227,10.0,16.0,69,0.00,,,0.00,weatherlink.com 1.10,2013-01-19 14:38:00,
2013-01-19 09:53:00,35.9,26.0,30.32,SW,217,11.0,15.0,67,0.00,,,0.00,weatherlink.com 1.10,2013-01-19 14:53:00,
2013-01-19 10:08:00,36.9,26.0,30.32,SW,223,7.0,12.0,66,0.00,,,0.00,weatherlink.com 1.10,2013-01-19 15:08:00,
2013-01-19 10:23:00,37.7,27.0,30.31,SW,222,9.0,14.0,65,0.00,,,0.00,weatherlink.com 1.10,2013-01-19 15:23:00,
2013-01-19 10:39:00,38.4,27.0,30.30,South,184,10.0,14.0,64,0.00,,,0.00,weatherlink.com 1.10,2013-01-19 15:39:00,
2013-01-19 10:54:00,39.1,27.0,30.29,SSW,204,7.0,15.0,61,0.00,,,0.00,weatherlink.com 1.10,2013-01-19 15:54:00,
2013-01-19 11:09:00,40.1,27.0,30.28,South,181,10.0,14.0,61,0.00,,,0.00,weatherlink.com 1.10,2013-01-19 16:09:00,
2013-01-19 11:24:00,41.0,28.0,30.26,SW,215,12.0,19.0,60,0.00,,,0.00,weatherlink.com 1.10,2013-01-19 16:24:00,
2013-01-19 11:39:00,41.5,28.0,30.24,SSW,203,11.0,16.0,58,0.00,,,0.00,weatherlink.com 1.10,2013-01-19 16:39:00,
2013-01-19 11:54:00,42.4,29.0,30.23,SSW,207,6.0,15.0,60,0.00,,,0.00,weatherlink.com 1.10,2013-01-19 16:54:00,
2013-01-19 12:09:00,43.2,28.0,30.21,SSW,212,7.0,14.0,56,0.00,,,0.00,weatherlink.com 1.10,2013-01-19 17:09:00,
2013-01-19 12:24:00,44.6,29.0,30.20,SSW,195,13.0,17.0,54,0.00,,,0.00,weatherlink.com 1.10,2013-01-19 17:24:00,
2013-01-19 12:39:00,45.5,30.0,30.19,South,183,8.0,17.0,54,0.00,,,0.00,weatherlink.com 1.10,2013-01-19 17:39:00,
2013-01-19 12:54:00,46.6,30.0,30.18,SSW,203,7.0,19.0,53,0.00,,,0.00,weatherlink.com 1.10,2013-01-19 17:54:00,
2013-01-19 13:09:00,46.8,29.0,30.17,SSW,206,12.0,18.0,50,0.00,,,0.00,weatherlink.com 1.10,2013-01-19 18:09:00,
2013-01-19 13:24:00,47.4,29.0,30.16,SSW,208,8.0,17.0,50,0.00,,,0.00,weatherlink.com 1.10,2013-01-19 18:24:00,
2013-01-19 13:39:00,47.8,30.0,30.15,SSW,202,8.0,15.0,50,0.00,,,0.00,weatherlink.com 1.10,2013-01-19 18:39:00,
2013-01-19 13:54:00,48.3,29.0,30.15,SW,220,11.0,17.0,48,0.00,,,0.00,weatherlink.com 1.10,2013-01-19 18:54:00,
2013-01-19 14:09:00,48.7,29.0,30.14,SSE,165,10.0,17.0,47,0.00,,,0.00,weatherlink.com 1.10,2013-01-19 19:09:00,
2013-01-19 14:24:00,49.3,29.0,30.13,South,184,11.0,20.0,46,0.00,,,0.00,weatherlink.com 1.10,2013-01-19 19:24:00,
2013-01-19 14:39:00,49.2,29.0,30.13,SSW,209,10.0,16.0,46,0.00,,,0.00,weatherlink.com 1.10,2013-01-19 19:39:00,
2013-01-19 14:54:00,49.4,30.0,30.12,South,171,7.0,17.0,47,0.00,,,0.00,weatherlink.com 1.10,2013-01-19 19:54:00,
2013-01-19 15:09:00,49.5,29.0,30.12,SSW,195,9.0,17.0,46,0.00,,,0.00,weatherlink.com 1.10,2013-01-19 20:09:00,
2013-01-19 15:25:00,49.2,30.0,30.11,SSE,167,6.0,15.0,48,0.00,,,0.00,weatherlink.com 1.10,2013-01-19 20:25:00,
2013-01-19 15:39:00,48.6,31.0,30.11,SSE,162,8.0,12.0,52,0.00,,,0.00,weatherlink.com 1.10,2013-01-19 20:39:00,
2013-01-19 15:55:00,47.9,30.0,30.10,SSW,194,6.0,13.0,51,0.00,,,0.00,weatherlink.com 1.10,2013-01-19 20:55:00,
2013-01-19 16:10:00,47.2,31.0,30.10,SSE,165,8.0,12.0,53,0.00,,,0.00,weatherlink.com 1.10,2013-01-19 21:10:00,
2013-01-19 16:25:00,46.6,31.0,30.09,South,171,6.0,13.0,54,0.00,,,0.00,weatherlink.com 1.10,2013-01-19 21:25:00,
2013-01-19 16:40:00,46.0,30.0,30.08,South,185,9.0,14.0,54,0.00,,,0.00,weatherlink.com 1.10,2013-01-19 21:40:00,
2013-01-19 16:55:00,45.3,30.0,30.08,South,182,9.0,14.0,55,0.00,,,0.00,weatherlink.com 1.10,2013-01-19 21:55:00,
2013-01-19 17:10:00,44.9,30.0,30.07,SSE,161,12.0,14.0,56,0.00,,,0.00,weatherlink.com 1.10,2013-01-19 22:10:00,
2013-01-19 17:25:00,44.5,30.0,30.07,South,173,8.0,14.0,57,0.00,,,0.00,weatherlink.com 1.10,2013-01-19 22:25:00,
2013-01-19 17:55:00,44.0,30.0,30.07,SSE,160,8.0,13.0,58,0.00,,,0.00,weatherlink.com 1.10,2013-01-19 22:55:00,
2013-01-19 18:25:00,44.2,30.0,30.05,SSW,196,11.0,15.0,59,0.00,,,0.00,weatherlink.com 1.10,2013-01-19 23:25:00,
2013-01-19 18:40:00,44.2,30.0,30.05,SW,221,10.0,15.0,58,0.00,,,0.00,weatherlink.com 1.10,2013-01-19 23:40:00,
2013-01-19 18:55:00,44.6,30.0,30.05,SSW,196,7.0,14.0,58,0.00,,,0.00,weatherlink.com 1.10,2013-01-19 23:55:00,
2013-01-19 19:10:00,45.1,30.0,30.05,SSW,200,12.0,20.0,57,0.00,,,0.00,weatherlink.com 1.10,2013-01-20 00:10:00,
2013-01-19 19:25:00,45.3,30.0,30.04,South,171,27.0,27.0,55,0.00,,,0.00,weatherlink.com 1.10,2013-01-20 00:25:00,
2013-01-19 19:40:00,45.2,30.0,30.04,SW,214,10.0,23.0,56,0.00,,,0.00,weatherlink.com 1.10,2013-01-20 00:40:00,
2013-01-19 19:55:00,44.9,30.0,30.03,SSW,196,9.0,24.0,57,0.00,,,0.00,weatherlink.com 1.10,2013-01-20 00:55:00,
2013-01-19 20:40:00,43.4,30.0,30.02,SSW,202,9.0,20.0,60,0.00,,,0.00,weatherlink.com 1.10,2013-01-20 01:40:00,
2013-01-19 20:55:00,42.6,30.0,30.02,South,191,16.0,16.0,62,0.00,,,0.00,weatherlink.com 1.10,2013-01-20 01:55:00,
2013-01-19 21:10:00,42.4,30.0,30.01,SW,214,7.0,14.0,63,0.00,,,0.00,weatherlink.com 1.10,2013-01-20 02:10:00,
2013-01-19 21:40:00,42.2,30.0,30.00,SSW,198,7.0,16.0,63,0.00,,,0.00,weatherlink.com 1.10,2013-01-20 02:40:00,
2013-01-19 21:55:00,42.1,30.0,30.00,SW,227,4.0,10.0,62,0.00,,,0.00,weatherlink.com 1.10,2013-01-20 02:55:00,
2013-01-19 22:10:00,41.6,30.0,29.98,SW,220,6.0,11.0,63,0.00,,,0.00,weatherlink.com 1.10,2013-01-20 03:10:00,
2013-01-19 22:25:00,41.8,29.0,29.97,SSW,206,9.0,13.0,62,0.00,,,0.00,weatherlink.com 1.10,2013-01-20 03:25:00,
2013-01-19 22:40:00,41.5,29.0,29.96,SSW,207,7.0,13.0,62,0.00,,,0.00,weatherlink.com 1.10,2013-01-20 03:40:00,
2013-01-19 22:55:00,41.4,29.0,29.96,SW,223,9.0,11.0,62,0.00,,,0.00,weatherlink.com 1.10,2013-01-20 03:55:00,
2013-01-19 23:10:00,41.4,29.0,29.96,SW,221,6.0,13.0,61,0.00,,,0.00,weatherlink.com 1.10,2013-01-20 04:10:00,
2013-01-19 23:25:00,41.3,29.0,29.95,SW,223,5.0,11.0,61,0.00,,,0.00,weatherlink.com 1.10,2013-01-20 04:25:00,
2013-01-19 23:40:00,41.2,29.0,29.94,SW,216,3.0,8.0,61,0.00,,,0.00,weatherlink.com 1.10,2013-01-20 04:40:00,
2013-01-19 23:55:00,40.9,28.0,29.93,SW,222,5.0,8.0,61,0.00,,,0.00,weatherlink.com 1.10,2013-01-20 04:55:00,